[[{"header":{"parameterUnit":"m.s-1","parameterCategory":1,"la1":30.2991,"la2":30.254,"lo1":-89.0895,"lo2":-89.0444,"dy":0.0017,"dx":0.0017,"nx":28,"ny":28,"refTime":"2025-08-04T03:00:00:Z","depth":0,"parameterNumber":2,"parameterNumberName":"U-component_of_WINDS"},"data":[0,0,0,0,0,0,0,0,0,0,0,0,0,0,0,0,0,0,0,0,0,0,0,0,0,0,0,0,0,0,0,0,0,0,0,0,0,0,0,0,0,0,0,0,0,0,0,0,0,0,0,0,0,0,0,0,0,0,-3.6951,-3.6951,0,-3.6989,-3.6989,-3.699,-3.6901,-3.6898,-3.6895,-3.6892,-3.6932,-3.6936,-3.6939,0,0,0,0,0,0,0,0,0,0,0,0,0,-3.6804,-3.6807,-3.6951,-3.6951,-3.6952,-3.6989,-3.6989,-3.699,-3.6901,-3.6898,-3.6894,-3.6891,-3.6931,-3.6935,-3.694,0,0,0,0,0,0,0,0,0,0,0,0,0,-3.6857,-3.6808,-3.6951,-3.6912,-3.6909,-3.6989,-3.6989,-3.699,-3.6902,-3.6898,-3.6893,-3.6889,-3.6929,-3.6935,-3.694,-3.7059,0,0,-3.6957,-3.6959,0,0,0,0,0,0,0,0,-3.6854,-3.6863,-3.6917,-3.6915,-3.6912,-3.6936,-3.6952,-3.7013,-3.6903,-3.6905,-3.6892,-3.6887,-3.6937,-3.6941,-3.6958,-3.7061,-3.7063,-3.6958,-3.6961,-3.6963,-3.6965,0,0,0,0,0,0,0,-3.6851,-3.6861,-3.6966,-3.6918,-3.6915,-3.6893,-3.6896,-3.6963,-3.6944,-3.6904,-3.6898,-3.6903,-3.6934,-3.6953,-3.6958,-3.7063,-3.6957,-3.6962,-3.6966,-3.6968,-3.7267,-3.7272,0,0,0,0,0,0,-3.6852,-3.6858,-3.6964,-3.6967,-3.6872,-3.69,-3.6903,-3.6932,-3.6943,-3.6941,-3.6907,-3.6899,-3.6945,-3.6952,-3.6959,-3.7099,-3.6963,-3.6968,-3.6972,-3.7263,-3.7268,-3.7273,0,0,0,0,0,0,-3.6849,-3.6862,-3.6963,-3.6911,-3.6922,-3.6907,-3.694,-3.6935,-3.6953,-3.6945,-3.6941,-3.6929,-3.6942,-3.6951,-3.7035,-3.7099,-3.6971,-3.6976,-3.7257,-3.7264,-3.7271,-3.738,0,0,0,0,0,0,-3.6845,-3.6862,-3.6906,-3.6912,-3.6925,-3.7038,-3.6944,-3.6939,-3.6963,-3.6953,-3.6965,-3.6963,-3.694,-3.7027,-3.7041,-3.7104,-3.698,-3.7251,-3.726,-3.7269,-3.7371,-3.739,-3.7406,0,0,0,0,0,-3.684,-3.6935,-3.6909,-3.6922,-3.698,-3.7042,-3.7049,-3.702,-3.6969,-3.7013,-3.7009,-3.6962,-3.7091,-3.7037,-3.7051,-3.7117,-3.7247,-3.7258,-3.7268,-3.7363,-3.7386,-3.7406,0,0,0,0,0,0,-3.6936,-3.6935,-3.6906,-3.7006,-3.7025,-3.7027,-3.7082,-3.7046,-3.708,-3.7069,-3.7032,-3.7036,-3.7127,-3.7131,-3.7071,-3.7234,-3.716,-3.7174,-3.7227,-3.725,-3.7267,-3.7263,-3.6985,0,0,0,0,0,-3.6969,-3.7019,-3.7016,-3.7104,-3.7115,-3.7098,-3.7123,-3.71,-3.7118,-3.7125,-3.7126,-3.7146,-3.719,-3.7221,-3.7261,-3.7372,-3.7373,-3.7425,-3.7443,-3.7457,-3.7469,-3.7528,-3.7551,-3.7307,-3.7307,-3.7307,0,0,-3.7037,-3.7043,-3.7077,-3.7124,-3.7135,-3.7188,-3.7105,-3.7164,-3.7202,-3.7134,-3.7213,-3.7215,-3.7235,-3.7333,-3.7376,-3.7339,-3.7537,-3.7471,-3.7482,-3.7486,-3.7541,-3.7564,-3.7585,-3.7315,-3.7313,-3.7312,0,0,-3.7188,-3.7198,-3.7273,-3.7287,-3.7306,-3.7294,-3.7312,-3.7321,-3.7319,-3.7398,-3.7348,-3.7395,-3.7472,-3.7488,-3.7507,-3.7667,-3.7626,-3.7682,-3.7774,-3.7832,-3.7851,-3.7868,-3.7925,-3.7946,-3.7694,-3.7694,-3.7694,0,-3.727,-3.7347,-3.7316,-3.7379,-3.7401,-3.7343,-3.7418,-3.7434,-3.7466,-3.7483,-3.7441,-3.7538,-3.7547,-3.7648,-3.7687,-3.7705,-3.7725,-3.7679,-3.7851,-3.7868,-3.7883,-3.7937,-3.7958,-3.77,-3.77,-3.7699,-3.7698,0,-3.7447,-3.7502,-3.756,-3.7592,-3.7622,-3.7691,-3.7671,-3.7704,-3.7679,-3.7672,-3.7754,-3.7764,-3.7805,-3.7828,-3.7804,-3.7926,-3.7903,-3.7857,-3.7782,-3.7913,-3.7963,-3.7983,-3.771,-3.7708,-3.7706,-3.7704,0,0,-3.7657,-3.7673,-3.7694,-3.7709,-3.7727,-3.7768,-3.7836,-3.7877,-3.7907,-3.7932,-3.7987,-3.8056,-3.8014,-3.8035,-3.8013,-3.8064,-3.819,-3.8012,-3.8012,-3.8044,-3.8326,-3.8359,-3.8383,-3.8164,-3.8168,-3.8171,-3.8324,0,-3.7805,-3.792,-3.7895,-3.8008,-3.8058,-3.8005,-3.8064,-3.8082,-3.8078,-3.812,-3.8116,-3.8165,-3.8106,-3.8119,-3.8168,-3.8165,-3.8246,-3.8154,-3.8215,-3.8218,-3.821,-3.8409,-3.8444,-3.8587,-3.8343,-3.8346,-3.8349,0,-3.7993,-3.8025,-3.8143,-3.8154,-3.8175,-3.8228,-3.8264,-3.8305,-3.8326,-3.8319,-3.8344,-3.8313,-3.838,-3.8307,-3.84,-3.8337,-3.8362,-3.8365,-3.837,-3.8373,-3.829,-3.8416,-3.8632,-3.8653,-3.8379,-3.8377,-3.8375,0,-3.8133,-3.8206,-3.8286,-3.83,-3.8316,-3.8354,-3.8363,-3.8379,-3.8405,-3.8438,-3.8455,-3.8495,-3.8517,-3.8549,-3.853,-3.8478,-3.8627,-3.8551,-3.8623,-3.8624,-3.8654,-3.8652,-3.8876,-3.8674,-3.8673,-3.8673,-3.8672,0,-3.83,-3.8374,-3.8349,-3.8398,-3.848,-3.8452,-3.8534,-3.8537,-3.8552,-3.8601,-3.8559,-3.8606,-3.8578,-3.8624,-3.8609,-3.8689,-3.8699,-3.8696,-3.8691,-3.8699,-3.8699,-3.8713,-3.8702,-3.8679,-3.8677,-3.8676,-3.8675,0,-3.8468,-3.8455,-3.8539,-3.8547,-3.8551,-3.8611,-3.8619,-3.8665,-3.8659,-3.8722,-3.8735,-3.8726,-3.8778,-3.8762,-3.8818,-3.8808,-3.8909,-3.8892,-3.8902,-3.8897,-3.8969,-3.8962,-3.9208,-3.9238,-3.9018,-3.902,-3.9022,0,-3.8575,-3.8631,-3.8646,-3.8676,-3.8687,-3.8736,-3.8763,-3.8739,-3.8769,-3.8798,-3.8841,-3.8889,-3.8925,-3.9011,-3.9009,-3.9052,-3.9035,-3.9119,-3.9041,-3.9048,-3.9035,-3.9031,-3.9037,-3.9133,-3.9136,-3.9138,-3.9139,0,-3.8765,-3.8756,-3.8797,-3.8836,-3.887,-3.89,-3.8926,-3.8954,-3.8931,-3.8967,-3.902,-3.9049,-3.9106,-3.9154,-3.9194,-3.9203,-3.9168,-3.9164,-3.9183,-3.919,-3.9193,-3.9192,-3.8942,-3.9158,-3.9156,-3.9155,-3.9154,-3.9153,-3.8905,-3.8952,-3.8971,-3.9018,-3.9035,-3.9061,-3.9105,-3.9105,-3.9148,-3.9193,-3.9176,-3.9237,-3.9257,-3.9307,-3.9322,-3.9369,-3.9337,-3.9364,-3.9371,-3.9378,-3.9386,-3.9188,-3.9376,-3.9376,-3.9375,-3.9375,-3.9374,0,-3.9092,-3.9102,-3.9146,-3.9184,-3.9221,-3.9186,-3.9214,-3.9247,-3.9301,-3.9323,-3.9361,-3.9422,-3.9469,-3.9472,-3.9517,-3.9554,-3.9539,-3.9567,-3.9563,-3.9566,-3.9413,-3.9391,-3.9578,-3.9578,-3.9578,-3.9578,-3.9578,-3.9578,-3.9193,-3.9272,-3.9266,-3.9353,-3.9362,-3.942,-3.9439,-3.9463,-3.9481,-3.9551,-3.959,-3.9592,-3.9607,-3.9653,-3.9695,-3.9695,-3.9713,-3.9746,-3.974,-3.9597,-3.9576,-3.9557,-3.9537,-3.9751,-3.9751,-3.9889,-3.989,-3.9891]},{"header":{"parameterUnit":"m.s-1","parameterCategory":1,"la1":30.2991,"la2":30.254,"lo1":-89.0895,"lo2":-89.0444,"dy":0.0017,"dx":0.0017,"nx":28,"ny":28,"refTime":"2025-08-04T03:00:00:Z","depth":0,"parameterNumber":3,"parameterNumberName":"V-component_of_WINDS"},"data":[0,0,0,0,0,0,0,0,0,0,0,0,0,0,0,0,0,0,0,0,0,0,0,0,0,0,0,0,0,0,0,0,0,0,0,0,0,0,0,0,0,0,0,0,0,0,0,0,0,0,0,0,0,0,0,0,0,0,0.9674,0.9674,0,0.9672,0.9672,0.9672,0.969,0.969,0.9691,0.9691,0.9686,0.9685,0.9684,0,0,0,0,0,0,0,0,0,0,0,0,0,0.9691,0.969,0.9674,0.9674,0.9674,0.9672,0.9672,0.9672,0.9689,0.969,0.9691,0.9691,0.9686,0.9685,0.9684,0,0,0,0,0,0,0,0,0,0,0,0,0,0.9685,0.969,0.9674,0.9683,0.9683,0.9672,0.9672,0.9672,0.9689,0.969,0.9691,0.9692,0.9686,0.9685,0.9684,0.9663,0,0,0.9681,0.9681,0,0,0,0,0,0,0,0,0.9686,0.9685,0.9681,0.9682,0.9683,0.9682,0.9676,0.9669,0.9689,0.9687,0.9691,0.9692,0.9683,0.9683,0.9681,0.9663,0.9663,0.9681,0.9681,0.968,0.968,0,0,0,0,0,0,0,0.9686,0.9685,0.9673,0.9681,0.9682,0.9686,0.9686,0.9675,0.9681,0.9687,0.9688,0.9688,0.9684,0.9682,0.9681,0.9663,0.9681,0.9681,0.968,0.968,0.9628,0.9627,0,0,0,0,0,0,0.9686,0.9685,0.9673,0.9673,0.9686,0.9685,0.9685,0.9681,0.9681,0.9682,0.9688,0.9689,0.9683,0.9682,0.9681,0.9656,0.968,0.968,0.9679,0.9629,0.9628,0.9627,0,0,0,0,0,0,0.9686,0.9684,0.9673,0.9679,0.9678,0.9684,0.968,0.9681,0.9678,0.9681,0.9682,0.9684,0.9683,0.9682,0.9668,0.9656,0.9679,0.9678,0.963,0.9629,0.9628,0.9607,0,0,0,0,0,0,0.9686,0.9684,0.9677,0.9679,0.9678,0.9661,0.9679,0.968,0.9677,0.9679,0.9678,0.9679,0.9684,0.9669,0.9667,0.9655,0.9678,0.9631,0.9629,0.9628,0.9609,0.9606,0.9603,0,0,0,0,0,0.9687,0.9671,0.9677,0.9675,0.9669,0.9661,0.966,0.9667,0.9676,0.9669,0.9671,0.9679,0.9658,0.9668,0.9665,0.9653,0.9632,0.963,0.9628,0.961,0.9606,0.9603,0,0,0,0,0,0,0.9666,0.9671,0.9678,0.9662,0.9661,0.9664,0.9654,0.9662,0.9657,0.9659,0.9667,0.9666,0.9651,0.9651,0.9661,0.9633,0.9646,0.9644,0.9634,0.963,0.9627,0.9627,0.9677,0,0,0,0,0,0.966,0.9653,0.9658,0.9643,0.9643,0.9648,0.9645,0.9651,0.9649,0.9648,0.9649,0.9647,0.964,0.9635,0.9629,0.9609,0.9609,0.96,0.9597,0.9594,0.9592,0.9582,0.9577,0.9621,0.9621,0.9621,0,0,0.9646,0.9648,0.9643,0.9639,0.9639,0.9631,0.9648,0.9639,0.9633,0.9647,0.9634,0.9634,0.9632,0.9616,0.9608,0.9615,0.958,0.9592,0.959,0.9589,0.9579,0.9575,0.9571,0.962,0.962,0.962,0,0,0.9618,0.9619,0.9607,0.9607,0.9607,0.9611,0.9608,0.961,0.9611,0.9599,0.9609,0.9602,0.9589,0.9588,0.9585,0.9557,0.9564,0.9554,0.9537,0.9527,0.9524,0.9521,0.951,0.9506,0.9552,0.9552,0.9552,0,0.9601,0.9591,0.96,0.9591,0.9588,0.9602,0.9589,0.9588,0.9586,0.9583,0.9591,0.9577,0.9576,0.9559,0.9552,0.955,0.9546,0.9554,0.9524,0.9521,0.9518,0.9508,0.9504,0.9551,0.9551,0.9551,0.9551,0,0.957,0.9562,0.9553,0.9551,0.9548,0.9537,0.9544,0.9539,0.9545,0.9548,0.9535,0.9535,0.9529,0.9526,0.9531,0.951,0.9514,0.9523,0.9536,0.9512,0.9503,0.95,0.9549,0.955,0.955,0.955,0,0,0.9527,0.9532,0.9528,0.9528,0.9529,0.9523,0.9513,0.9508,0.9504,0.9501,0.9493,0.9482,0.9491,0.9488,0.9493,0.9484,0.9462,0.9494,0.9494,0.9488,0.9438,0.9431,0.9426,0.9467,0.9466,0.9466,0.9438,0,0.9499,0.9483,0.9491,0.9474,0.9467,0.948,0.9471,0.947,0.9473,0.9467,0.9469,0.9462,0.9474,0.9472,0.9464,0.9466,0.9452,0.9468,0.9458,0.9457,0.9458,0.9422,0.9414,0.9388,0.9434,0.9434,0.9433,0,0.9465,0.9462,0.9444,0.9447,0.9445,0.9436,0.9433,0.9427,0.9427,0.9429,0.9427,0.9434,0.9423,0.9437,0.9422,0.9434,0.943,0.943,0.9429,0.9428,0.9444,0.9419,0.938,0.9376,0.9428,0.9428,0.9429,0,0.9435,0.9428,0.9416,0.9415,0.9418,0.9412,0.9413,0.9413,0.941,0.9407,0.9405,0.94,0.9397,0.9392,0.9398,0.9408,0.9382,0.9397,0.9383,0.9383,0.9377,0.9377,0.9336,0.9375,0.9375,0.9375,0.9375,0,0.9403,0.9391,0.9403,0.9395,0.9383,0.9392,0.9379,0.9381,0.9381,0.9374,0.9385,0.9377,0.9385,0.9379,0.9383,0.937,0.9369,0.937,0.9371,0.9369,0.9368,0.9366,0.9368,0.9374,0.9375,0.9375,0.9375,0,0.9368,0.9375,0.9363,0.9367,0.9368,0.9359,0.9362,0.9355,0.9359,0.935,0.9348,0.9353,0.9346,0.9352,0.9344,0.9347,0.933,0.9334,0.933,0.9331,0.9318,0.9319,0.9273,0.9267,0.931,0.931,0.931,0,0.9347,0.9338,0.9342,0.9339,0.9339,0.9333,0.933,0.9339,0.9336,0.9335,0.9328,0.9322,0.9317,0.9305,0.9308,0.9302,0.9306,0.929,0.9305,0.9303,0.9305,0.9305,0.9304,0.9287,0.9286,0.9286,0.9286,0,0.9308,0.9313,0.9309,0.9306,0.9302,0.93,0.9299,0.9295,0.9304,0.93,0.9293,0.929,0.9283,0.9277,0.9272,0.9272,0.928,0.9281,0.9278,0.9275,0.9273,0.9274,0.9322,0.9282,0.9282,0.9283,0.9283,0.9283,0.9279,0.9272,0.9274,0.9269,0.927,0.9268,0.9262,0.9266,0.9261,0.9257,0.9262,0.9254,0.9253,0.9249,0.9248,0.9241,0.9247,0.9242,0.9241,0.9239,0.9237,0.9275,0.924,0.924,0.924,0.924,0.924,0,0.9241,0.9243,0.9239,0.9237,0.9233,0.9243,0.9242,0.9238,0.9231,0.923,0.9226,0.9218,0.9213,0.9215,0.921,0.9204,0.9208,0.9202,0.9202,0.9202,0.9232,0.9235,0.92,0.92,0.92,0.92,0.92,0.92,0.9221,0.921,0.9214,0.9203,0.9205,0.9198,0.9197,0.9195,0.9195,0.9187,0.9182,0.9185,0.9185,0.918,0.9175,0.9176,0.9173,0.9166,0.9169,0.9196,0.92,0.9204,0.9207,0.9166,0.9166,0.9139,0.9139,0.9139]}]]